Flag for Jordan Weather past 2 weeks in Zarqa, Jordan

Now
75 °F

Sunny.


Feels Like: 77 °F
Forecast: 65 / 93 °F
Wind: 13 mph from West

Location: Amman Airport


UV Index: 7 (High)

Visibility: 10 mi


Pressure: 30.07 "Hg

Humidity: 25%

Dew point: 37 °F

Location of ZarqaLocation

Historic Weather in Zarqa

°F

Zarqa temperature yesterday

Maximum temperature yesterday: 77 °F (at 2:00 PM)
Minimum temperature yesterday: 63 °F (at 6:00 AM)
Average temperature yesterday: 68 °F

Past Weeks' High & Low Weather Summary

 TemperatureHumidityPressure
High84 °F (Apr 6, 3:00 PM)88% (Apr 10, 5:00 AM)30.18 "Hg (Apr 10, 5:00 AM)
Low46 °F (Apr 4, 6:00 AM)10% (Apr 5, 6:00 PM)29.83 "Hg (Apr 17, 6:00 AM)
Average64 °F41%30.01 "Hg
* Reported Apr 3 4:00 PM — Apr 18 4:00 PM, Zarqa, Weather by CustomWeather, © 2014

Note: Actual official high and low records may vary slightly from our data, if they occured in-between our weather recording intervals... More about our weather records

Advertising

Historic Weather Conditions — Data for Previous 24 hours

 ConditionsComfort  
Time TempWeatherWind HumidityBarometerVisibility
4:00 PM
Apr 18
77 °FSunny.14 mph24%30.04 "Hg10 mi
3:00 PM75 °FSunny.14 mph25%30.04 "Hg10 mi
2:00 PM75 °FClear.12 mph24%30.04 "Hg4 mi
1:00 PM73 °FClear.12 mph25%30.04 "Hg4 mi
12:00 PM70 °FClear.12 mph31%30.01 "Hg4 mi
11:00 AM68 °FClear.8 mph33%30.01 "Hg4 mi
10:00 AM64 °FHaze.9 mph37%29.98 "Hg3 mi
9:00 AM61 °FHaze.12 mph45%29.98 "Hg3 mi
8:00 AM59 °FHaze.9 mph51%29.95 "Hg3 mi
7:00 AM57 °FHaze.15 mph55%29.95 "Hg3 mi
6:00 AM57 °FHaze.13 mph48%29.92 "Hg2 mi
5:00 AM57 °FHaze.15 mph51%29.92 "Hg3 mi
4:00 AM59 °FHaze.16 mph59%29.92 "Hg3 mi
3:00 AM59 °FHaze.13 mph63%29.92 "Hg3 mi
2:00 AM61 °FHaze.10 mph63%29.92 "Hg3 mi
1:00 AM61 °FHaze.12 mph63%29.92 "Hg3 mi
12:00 AM61 °FHaze.12 mph63%29.92 "Hg3 mi
11:00 PM
Apr 17
63 °FHaze.8 mph64%29.92 "Hg3 mi
10:00 PM63 °FHaze.6 mph68%29.92 "Hg3 mi
9:00 PM63 °FHaze.9 mph64%29.92 "Hg3 mi
8:00 PM63 °FHaze.7 mph56%29.89 "Hg3 mi
7:00 PM66 °FHaze.16 mph46%29.86 "Hg3 mi
6:00 PM72 °FHaze.12 mph38%29.86 "Hg3 mi
5:00 PM75 °FHaze.14 mph31%29.83 "Hg3 mi
Weather by CustomWeather, © 2014

See weather overview